Wind_Speed
2 4 4 3 4 2 3 3 3 3 2 11 14 18 18 14 13 11 9 7 6 8 9 13 16 15 15 16 15 10 8 21 24 20 14 18 31 34 29 34 38 39 30 44
2 6 5 2 3 4 5 4 3 5 5 7 15 19 20 18 13 12 9 6 9 7 9 10 15 15 17 17 19 15 10 8 15 18 21 22 24 28 36 27 35 34 34 30
3 2 6 4 4 5 5 5 3 5 5 9 9 11 1 9 2 5 8 9 9 9 7 8 10 16 18 18 19 21 16 12 11 19 21 20 15 17 20 28 35 40 37 37
4 2 6 6 5 6 5 7 3 5 8 7 4 6 8 2 7 4 5 5 8 12 8 7 9 13 16 19 22 22 23 20 12 10 20 24 24 23 28 29 34 27 38 40
2 3 3 4 2 7 0 4 3 6 9 5 6 5 1 6 6 3 10 10 9 5 6 7 8 11 16 16 19 23 25 24 19 13 14 21 26 27 28 23 23 25 33 37
9 1 4 6 3 2 3 1 3 1 2 5 0 4 3 6 5 4 10 6 7 5 6 8 12 12 14 17 16 19 22 27 24 20 14 18 25 27 26 28 28 31 31 29
3 3 2 2 5 3 2 3 4 3 3 3 1 9 11 9 9 13 14 11 4 6 8 11 15 16 19 18 19 18 17 24 26 24 22 15 21 29 30 30 27 24 24 24
7 7 6 3 3 3 4 3 3 4 4 7 5 10 3 1 5 11 11 12 10 11 12 14 16 17 17 18 19 20 21 20 20 22 25 20 18 19 25 29 29 28 30 27
3 3 1 3 3 5 5 5 2 3 5 7 7 11 14 11 8 7 10 7 8 12 15 15 16 17 16 20 23 20 22 24 22 21 22 22 21 20 23 27 30 29 29 24
2 5 3 1 3 3 6 9 3 3 4 6 7 16 13 13 11 12 7 7 8 13 16 17 14 14 16 19 22 22 21 25 26 25 23 22 21 21 24 25 25 25 26 22
3 4 4 2 8 12 5 4 2 2 4 5 8 7 2 12 12 11 11 10 14 17 15 15 15 15 17 16 18 21 23 24 23 24 24 24 24 22 20 22 23 22 20 21
1 2 8 12 7 2 3 9 10 7 6 5 5 15 11 13 5 11 21 21 18 16 16 16 17 20 18 18 20 21 22 23 22 24 24 26 25 21 20 23 23 22 23 20
4 3 5 6 4 3 4 8 9 8 2 15 12 13 5 12 19 23 21 20 17 17 18 18 18 17 18 20 20 23 24 24 24 23 25 26 27 23 24 24 24 23 21 21
2 5 10 10 10 2 8 11 12 11 6 19 18 32 24 26 22 20 19 17 17 17 19 18 17 18 19 21 23 26 26 25 26 25 25 26 28 26 26 25 23 24 23 23
6 9 14 18 19 17 20 21 20 19 23 16 24 24 25 22 20 19 16 16 19 21 21 19 18 17 16 23 25 28 25 27 27 28 27 28 29 26 22 22 22 21 23 23
4 3 3 12 15 17 19 20 19 19 22 23 28 28 25 20 13 17 15 17 21 22 24 24 20 17 20 23 25 29 27 29 27 29 29 29 25 24 24 21 22 22 22 24
1 2 4 5 2 10 14 12 10 9 10 13 17 20 18 19 19 16 19 23 27 26 20 21 17 19 19 26 27 27 28 30 29 30 28 29 25 25 24 24 25 26 27 27
8 4 3 6 8 7 4 6 11 12 15 16 18 21 18 17 18 24 21 24 25 20 19 20 20 19 21 25 30 28 29 27 28 31 27 26 24 25 26 27 28 26 26 27
14 9 4 4 5 12 12 2 2 4 14 18 17 14 16 19 26 25 18 18 17 22 23 22 28 25 23 25 28 27 32 27 30 29 24 23 23 25 29 29 28 27 28 24
7 7 2 2 4 5 3 1 2 6 13 4 10 17 20 22 17 18 23 22 17 22 24 20 28 27 25 28 23 24 28 30 28 24 23 22 24 27 27 29 29 28 27 26
3 3 9 9 6 8 4 1 4 5 6 18 21 18 22 20 19 27 23 22 22 23 19 26 25 22 23 27 24 24 28 25 27 18 21 22 22 23 25 30 31 32 30 31
2 3 3 3 5 6 2 7 5 11 20 20 22 23 23 25 28 23 21 24 22 23 21 27 19 21 25 25 23 22 24 26 22 15 16 22 27 27 29 33 30 31 34 29
2 3 2 4 5 7 11 16 15 20 20 21 21 23 23 26 26 26 25 22 23 21 19 27 20 21 24 24 24 21 28 23 17 15 15 21 26 29 32 35 31 29 29 25
3 2 3 4 4 12 17 17 18 19 19 20 22 24 19 24 23 23 20 20 19 19 19 25 20 18 17 25 23 25 26 21 20 21 21 23 29 29 30 30 30 28 25 22
5 4 5 8 16 16 10 17 18 18 20 21 22 21 20 19 19 19 19 19 18 19 20 25 18 17 18 22 19 23 21 21 26 24 25 24 28 27 28 25 24 25 23 26
1 3 2 4 15 15 17 20 21 20 22 24 19 17 18 18 19 19 17 17 18 18 21 22 23 21 25 32 24 20 26 32 29 27 27 25 25 25 25 25 25 19 20 21
Wind_Direction
43 222 211 160 200 166 175 189 221 278 267 327 299 299 299 286 275 267 257 269 288 288 290 308 316 326 333 336 349 351 237 223 218 218 233 233 226 229 230 234 242 243 224 242
210 225 190 165 175 183 191 205 224 276 260 295 296 296 287 283 266 255 220 245 274 278 275 292 309 322 325 325 329 332 334 299 243 230 224 224 235 224 225 229 234 237 238 241
240 98 162 194 179 193 208 222 218 278 299 274 299 293 62 329 195 213 262 278 291 280 269 291 304 314 322 326 330 323 323 312 278 238 229 226 244 238 225 225 233 241 249 253
260 134 188 198 232 210 243 206 231 283 312 306 346 296 269 156 310 244 300 303 301 299 278 280 305 321 327 322 321 320 319 314 307 272 234 225 218 232 230 220 226 237 253 248
192 187 222 251 220 188 265 164 279 288 289 291 260 257 198 221 224 184 326 317 301 298 306 307 318 315 313 319 319 319 316 309 307 296 248 231 228 225 238 243 237 239 246 243
261 260 257 260 137 155 103 259 289 170 252 248 224 252 213 209 204 269 310 288 286 306 321 325 318 318 314 318 316 316 318 307 305 307 284 242 231 228 228 233 237 243 247 245
219 219 172 194 167 124 130 318 302 244 220 304 141 290 258 230 254 289 295 287 311 331 319 327 326 324 325 324 321 319 314 300 300 301 296 275 245 232 228 227 231 230 229 229
220 231 184 161 214 217 194 247 265 285 263 294 263 252 246 72 285 284 285 282 300 319 333 322 321 311 314 320 317 311 307 294 287 289 293 286 273 249 233 231 229 227 230 235
196 236 236 205 224 200 156 211 27 278 257 269 240 259 275 278 297 288 301 297 298 335 327 328 324 306 306 315 314 309 304 297 284 277 284 277 269 249 235 231 232 231 238 236
131 286 241 211 199 176 242 145 182 193 258 258 258 271 265 300 312 308 323 312 322 328 329 331 329 306 302 308 309 311 307 296 288 281 277 272 268 255 241 231 231 227 225 226
164 241 244 251 221 234 180 202 159 275 245 269 297 277 359 305 317 316 321 321 318 319 322 317 320 306 296 301 309 314 314 304 289 282 278 270 265 255 246 234 232 230 223 214
127 239 260 266 262 305 261 246 233 233 212 235 286 274 289 280 319 317 309 305 309 305 311 313 314 303 296 296 301 310 317 312 295 286 280 268 264 257 242 231 227 221 215 207
184 219 288 282 148 151 202 200 212 220 246 245 262 267 180 272 303 304 304 303 304 305 310 310 303 298 295 299 304 306 311 315 305 294 288 271 260 251 241 231 223 214 206 198
273 238 246 257 292 292 269 249 225 227 253 266 252 272 276 284 289 305 309 300 299 302 301 300 300 297 294 299 300 303 311 312 306 294 292 272 260 243 234 226 215 208 200 190
203 256 252 261 267 270 267 270 264 250 246 252 269 269 281 286 292 298 308 300 300 302 300 296 301 292 295 299 299 296 309 308 306 293 293 273 260 247 223 211 202 196 191 186
184 257 243 275 263 260 268 263 260 254 257 260 265 274 279 284 284 296 297 306 303 294 296 290 288 284 294 296 298 289 307 303 302 293 288 280 256 233 210 193 188 179 179 172
284 249 282 272 295 296 275 267 241 230 245 256 273 289 305 296 304 312 310 304 299 293 295 293 284 293 289 290 294 291 299 298 295 290 285 275 236 215 195 180 169 170 166 160
231 199 255 281 297 245 30 287 281 274 278 279 280 295 301 310 311 307 301 297 302 296 294 292 288 289 286 287 287 295 292 288 292 289 280 256 212 198 182 168 164 160 155 154
222 222 249 270 264 292 287 29 347 295 292 289 294 300 312 311 305 301 300 280 294 285 288 289 289 286 286 281 286 287 288 293 292 284 279 229 192 183 172 158 153 149 144 144
168 208 226 268 281 276 352 114 52 313 289 102 322 313 304 309 303 302 306 301 290 292 287 288 286 290 285 280 280 282 272 274 274 273 270 202 182 178 164 149 143 139 141 138
147 186 229 254 262 265 281 184 304 280 342 311 299 290 295 298 294 303 296 289 301 292 287 286 283 278 277 277 274 266 266 269 276 259 256 181 166 157 150 134 134 130 130 127
241 200 224 240 245 268 93 318 319 296 291 291 299 306 299 297 299 303 295 300 298 293 293 289 281 276 275 269 265 261 268 270 266 243 194 160 147 142 133 128 126 128 125 122
294 232 275 242 267 314 308 289 290 289 295 308 305 307 303 302 297 305 302 299 297 299 295 294 287 280 272 265 255 255 263 260 236 198 156 140 135 133 133 128 127 121 123 127
281 213 240 302 256 281 300 302 300 306 307 307 304 306 306 299 296 297 297 299 300 298 295 292 285 275 265 257 249 246 254 224 203 164 149 136 128 126 127 125 126 131 136 138
269 295 265 254 278 306 301 304 307 314 308 313 311 310 302 300 296 297 301 300 297 295 294 292 281 270 263 254 235 233 225 212 164 141 131 125 122 123 120 122 137 143 149 149
329 262 281 302 298 294 297 310 318 314 313 317 311 308 305 302 300 303 300 298 299 303 297 289 282 242 236 246 224 222 171 148 141 136 129 125 123 122 124 115 101 118 139 147
Height
767 766 767 764 765 766 768 771 771 766 762 764 757 753 746 747 747 744 740 740 738 735 730 730 726 725 723 721 725 726 730 734 736 735 728 728 733 739 739 741 744 748 753 750
768 767 763 764 765 768 769 769 770 767 765 768 758 754 744 737 738 737 737 737 737 735 733 731 727 722 720 718 720 723 722 723 724 725 726 730 734 727 729 733 736 738 740 742
769 763 762 765 765 767 766 768 771 772 768 762 761 743 741 732 735 735 735 734 734 734 734 731 729 726 720 717 717 717 718 719 721 720 722 723 723 726 727 726 728 731 732 733
765 763 763 764 765 764 768 763 768 770 769 766 762 754 745 739 733 733 731 730 729 727 729 731 729 725 723 720 716 714 712 712 715 715 717 715 714 719 718 714 717 723 724 729
762 762 763 764 760 761 764 765 768 768 768 771 756 762 741 742 735 734 731 728 726 727 727 727 728 728 724 722 718 714 709 707 709 711 710 709 710 710 712 712 713 716 721 724
758 757 757 757 760 761 765 765 768 774 771 764 759 760 736 732 730 731 727 726 728 725 725 726 725 724 723 719 717 713 707 703 703 702 704 703 702 704 705 709 709 712 715 717
759 759 758 757 760 763 764 768 767 764 761 754 760 757 733 728 728 725 724 723 725 727 726 724 721 719 718 716 713 710 707 702 699 697 696 695 697 698 699 699 704 707 708 709
762 766 760 758 756 759 764 766 771 779 766 755 756 748 724 724 725 724 722 721 722 723 724 723 720 717 714 712 710 707 704 701 698 694 689 688 688 688 689 692 694 696 701 704
765 766 759 758 756 757 769 769 771 776 773 772 744 730 725 718 720 720 719 721 722 722 720 718 716 714 711 708 704 702 699 694 693 689 686 684 682 681 680 681 682 687 690 696
764 772 761 758 758 759 759 762 775 775 776 764 735 732 723 719 719 715 718 718 719 718 715 711 711 711 709 705 700 694 692 689 685 682 679 675 674 674 673 675 675 678 682 686
766 770 762 764 759 753 763 765 771 771 769 759 745 720 716 717 717 718 717 717 717 713 710 709 706 705 702 700 696 690 685 683 680 677 673 670 667 666 665 665 666 670 676 678
770 769 764 759 750 757 755 756 759 765 764 763 763 724 710 712 718 717 712 708 709 711 707 705 701 698 695 693 690 686 680 676 674 670 667 664 659 658 658 658 659 666 669 672
770 770 766 754 757 759 755 756 756 758 772 757 758 724 712 710 711 711 710 707 705 705 703 699 696 691 688 685 682 678 674 669 667 664 661 657 653 650 649 650 654 660 664 667
774 767 764 760 748 756 759 752 753 754 764 738 736 712 715 710 709 706 706 705 703 701 698 695 690 686 682 680 677 671 665 662 660 655 651 648 645 642 641 644 650 654 657 661
768 767 760 756 753 753 750 747 744 745 741 743 722 716 704 702 702 703 704 703 699 697 692 688 684 681 678 673 669 665 658 654 653 648 643 638 636 637 636 639 643 648 653 657
770 771 767 762 752 748 745 735 731 732 731 727 718 710 703 699 701 699 698 698 695 690 686 682 678 675 672 668 663 659 651 648 647 641 634 630 628 630 630 632 637 642 649 654
770 768 763 753 747 746 734 715 715 717 714 712 710 697 694 694 695 698 697 696 690 680 676 674 670 667 665 662 658 652 645 642 638 632 625 621 620 622 623 627 632 639 645 651
769 771 770 753 751 736 711 715 715 716 711 706 702 697 697 697 699 696 695 691 682 674 669 667 663 659 658 655 651 644 639 635 629 623 618 612 612 616 619 623 628 637 642 649
765 767 764 754 739 725 712 718 719 719 716 707 705 703 701 702 692 683 684 681 680 675 666 658 653 650 648 644 639 635 630 625 622 615 612 606 607 612 615 618 624 632 640 649
767 770 767 752 749 737 717 723 726 725 708 707 709 706 705 693 690 673 674 672 668 665 656 648 643 641 639 634 632 626 622 621 613 609 605 601 604 609 611 614 622 631 641 650
764 765 764 756 750 726 719 724 727 722 711 715 711 707 700 688 681 669 666 658 658 650 645 639 634 630 629 625 625 620 613 609 605 602 599 598 602 606 613 614 622 631 644 652
752 756 751 748 743 731 725 725 734 721 714 708 700 691 684 678 670 665 657 649 644 638 633 629 624 621 618 616 616 612 601 602 597 597 594 596 601 608 610 617 627 638 643 655
751 750 752 750 731 723 727 728 723 716 707 698 692 685 680 673 664 657 646 641 633 627 622 617 611 607 606 604 603 599 591 594 592 593 595 598 600 606 613 620 632 640 648 660
747 751 750 749 725 725 720 717 713 708 700 694 688 681 677 668 660 651 643 635 628 620 612 606 600 594 590 590 591 589 587 587 589 592 597 599 602 610 619 627 634 644 654 663
748 751 744 740 731 723 717 714 707 701 695 690 683 680 672 663 653 647 639 631 623 615 604 593 584 577 573 572 576 579 579 581 586 592 596 601 608 615 623 631 641 649 656 659
753 755 750 738 736 730 717 708 701 697 690 686 680 673 667 660 650 644 636 626 616 606 593 573 557 546 550 554 567 570 570 576 585 591 597 605 614 621 629 636 645 653 657 662